GFSFLT1_prec_cloud_021.txt.gz
Cloud_Cover
83 75 91 4 0 0 0 0 0 0 0 0 0 0 0 0 0 0 0 0 0 0 0 0 0 0 0 0 0 0 0 7 54
88 98 56 5 2 0 0 0 0 0 0 0 0 0 0 0 0 0 0 0 0 0 0 0 0 0 0 0 0 1 4 5 83
100 77 77 3 2 0 0 0 0 0 0 0 0 0 0 0 0 0 0 0 0 0 0 0 0 0 0 0 0 0 0 2 5
22 0 68 0 3 0 0 0 0 0 0 0 0 0 0 0 0 0 0 0 0 0 0 0 0 0 0 0 0 4 0 0 0
23 9 6 18 2 0 0 0 0 0 0 0 0 0 0 0 0 0 0 0 0 0 0 0 0 0 0 0 0 0 12 65 5
78 98 44 7 5 4 0 0 0 0 0 0 0 0 0 0 0 0 0 0 0 0 0 0 0 0 0 5 5 5 31 99 5
99 99 100 92 1 0 0 0 0 0 0 0 0 0 0 0 0 0 0 0 0 0 0 0 0 0 0 5 4 32 62 74 100
100 98 100 95 5 5 0 0 0 0 0 0 0 0 0 0 0 0 0 0 0 0 0 0 0 0 0 3 5 5 75 97 56
61 70 100 74 80 64 4 0 0 0 0 0 0 0 0 0 0 0 0 0 0 0 0 0 5 5 0 5 5 8 18 69 80
21 95 88 29 93 6 5 0 0 0 0 0 0 0 0 0 0 0 0 0 0 0 0 0 5 5 5 5 69 79 88 94 69
13 3 74 100 100 90 34 4 4 5 0 0 0 0 0 0 0 0 0 0 0 0 5 5 5 5 9 35 34 70 90 100 99
0 6 22 71 58 100 100 20 4 2 46 13 5 5 5 0 0 1 3 5 5 5 5 5 5 0 21 89 100 100 100 100 100
4 2 3 75 97 77 100 100 5 5 0 0 5 5 5 5 5 5 5 5 5 5 2 5 0 23 53 100 100 100 100 100 100
0 0 78 4 0 2 8 99 42 26 5 5 5 0 0 4 5 5 5 5 3 0 12 43 8 100 100 100 100 100 100 100 100
0 0 0 1 5 5 5 3 6 35 71 13 5 5 5 5 5 5 5 1 1 8 83 41 100 100 100 100 100 100 100 100 47
0 0 0 0 3 97 74 2 0 3 4 0 2 5 2 5 4 8 5 20 73 80 86 100 100 100 100 100 100 100 69 14 83
0 0 0 0 0 0 89 61 98 18 5 0 0 2 13 9 36 56 66 56 51 65 72 61 58 98 100 100 73 33 39 22 12
0 0 15 39 20 47 0 2 100 100 44 0 24 100 57 92 100 100 100 100 78 36 97 100 90 100 61 29 91 26 15 14 68
0 92 100 100 100 18 17 51 88 96 33 3 84 100 100 100 100 100 100 68 97 100 75 72 88 87 70 68 45 28 44 39 92
46 100 100 100 100 100 88 74 6 17 17 26 30 49 44 100 100 100 100 100 100 91 80 53 100 100 84 26 26 62 23 5 0

GFSFLT1_prec_cloud_024.txt.gz
Cloud_Cover
5 2 32 96 73 63 0 0 0 0 0 0 0 0 0 0 0 0 0 0 0 0 0 0 0 0 0 0 0 0 0 0 5
0 3 74 100 12 62 2 0 0 0 0 0 0 0 0 0 0 0 0 0 0 0 0 0 0 0 0 0 0 0 0 0 7
3 3 5 86 66 90 86 0 0 0 0 0 0 0 0 0 0 0 0 0 0 0 0 0 0 0 0 0 0 0 0 0 0
4 5 1 5 100 98 98 1 0 0 0 0 0 0 0 0 0 0 0 0 0 0 0 0 0 0 0 0 0 0 0 0 1
25 65 17 44 83 26 6 0 0 0 0 0 0 0 0 0 0 0 0 0 0 0 0 0 0 0 0 0 4 1 5 5 5
5 63 88 77 16 41 40 4 0 0 0 0 0 0 0 0 0 0 0 0 0 0 0 0 0 0 0 0 5 5 5 8 5
51 96 100 89 96 33 100 5 5 0 0 0 0 0 0 0 0 0 0 0 0 0 0 0 0 0 0 0 5 5 5 5 2
0 63 24 52 46 27 40 42 46 4 2 0 0 0 0 0 0 0 0 0 0 0 0 0 0 1 5 5 8 5 5 1 5
0 0 3 91 98 50 68 31 3 2 0 0 0 0 0 0 0 0 0 0 0 0 0 0 0 1 5 5 5 5 5 5 5
0 3 0 10 77 73 31 4 5 0 0 0 0 0 0 0 0 0 0 0 0 1 0 0 0 3 5 5 5 5 5 5 6
1 0 3 0 2 3 69 44 5 5 5 3 0 0 0 0 0 0 0 0 0 3 32 5 2 1 0 0 0 5 5 11 86
0 5 12 5 0 0 1 13 35 43 5 5 5 3 0 0 0 0 0 0 0 1 26 49 19 0 0 0 4 25 98 100 100
1 0 0 5 2 0 4 0 44 94 77 25 100 41 0 0 0 4 3 0 0 0 0 2 4 53 27 5 68 100 100 100 100
4 0 0 0 0 0 0 3 4 56 26 15 99 98 38 5 4 14 100 80 6 0 0 10 32 83 88 100 100 100 100 100 100
5 5 0 0 0 0 0 2 5 36 5 14 81 14 94 44 9 2 14 100 70 26 1 58 100 100 100 100 100 100 100 100 100
99 5 4 0 0 0 1 4 2 0 0 3 22 98 100 100 46 36 4 35 9 54 70 100 100 100 100 100 100 100 100 100 100
100 100 20 17 15 3 0 0 1 5 5 19 19 26 48 100 100 99 7 6 33 58 100 100 100 100 100 100 100 100 98 96 37
32 92 8 15 28 65 96 53 0 0 2 90 41 8 39 75 100 100 100 100 100 100 100 100 100 100 100 100 100 100 86 31 41
5 5 0 0 0 1 29 99 100 100 100 100 99 100 100 100 100 100 100 100 100 100 100 100 100 100 100 100 100 100 100 100 100
5 0 0 31 77 48 100 100 100 100 100 100 100 100 100 100 100 100 100 100 100 100 100 100 100 100 100 100 100 100 100 100 97

GFSFLT1_prec_cloud_030.txt.gz
Cloud_Cover
86 5 0 2 5 5 5 4 0 0 0 0 0 0 0 0 0 0 0 0 0 0 0 0 0 0 0 0 0 0 0 0 0
8 5 4 5 5 5 50 4 4 0 0 0 0 0 0 0 0 0 0 0 0 0 0 0 0 0 0 0 0 0 0 0 0
5 0 4 5 4 2 2 14 5 5 0 0 0 0 0 0 0 0 0 0 0 0 0 0 0 0 0 0 0 0 0 0 0
2 5 4 5 5 5 11 92 5 3 10 2 0 0 0 0 0 0 0 0 0 0 0 0 0 0 0 0 0 0 0 0 0
0 19 77 0 3 90 63 47 48 5 5 24 0 0 0 0 0 0 0 0 0 0 0 0 0 0 0 0 0 0 0 0 0
47 2 0 0 0 4 5 5 8 81 16 4 1 0 0 0 0 0 0 0 0 0 0 0 0 0 0 0 0 0 0 0 0
0 6 3 0 0 0 1 5 5 4 5 5 4 0 0 0 0 0 0 0 0 0 0 0 0 0 0 0 0 0 0 0 0
0 0 5 5 1 0 0 0 2 0 1 1 3 5 0 0 0 0 0 0 0 0 0 0 0 0 0 0 0 0 0 0 0
0 0 0 2 19 35 4 0 0 5 3 5 84 5 0 0 0 0 0 0 0 0 0 0 0 0 0 0 0 0 0 0 0
0 0 0 0 0 2 6 5 5 6 2 58 98 91 23 38 6 0 0 0 0 0 0 0 0 0 0 0 0 0 0 0 5
0 0 0 0 0 0 0 1 0 0 0 2 33 100 100 97 50 26 3 0 0 0 0 0 0 0 0 0 0 0 0 0 5
0 0 0 0 0 0 0 0 0 0 0 0 2 99 90 100 100 84 4 0 1 0 0 0 0 0 0 0 0 3 0 1 4
0 0 1 1 0 0 0 0 0 0 0 0 0 0 64 98 100 79 11 59 69 95 0 5 0 11 92 81 20 46 3 2 1
5 0 0 2 0 2 0 0 0 0 0 0 0 5 13 66 100 40 100 76 99 100 51 100 81 52 79 100 81 78 53 4 11
46 62 3 0 3 0 0 0 0 0 0 18 21 75 58 100 100 67 83 10 64 89 99 100 100 95 94 96 85 100 100 100 100
45 45 44 33 55 46 53 3 0 0 15 51 100 82 91 61 100 19 100 63 100 82 100 97 88 74 100 100 100 100 100 100 100
24 25 92 94 17 5 26 34 3 10 6 5 17 68 100 60 47 46 3 16 78 100 91 100 100 100 100 100 100 100 100 100 100
31 8 7 6 5 0 0 0 0 0 0 0 0 1 2 4 0 0 0 53 86 100 100 100 100 100 100 100 100 100 100 100 100
5 5 5 1 9 14 31 0 0 0 0 0 0 98 45 11 10 72 100 100 100 100 100 100 100 100 100 100 100 100 100 100 100
100 97 87 66 66 55 91 96 32 11 0 0 0 46 100 100 100 100 100 100 100 100 100 100 100 100 100 100 100 100 100 100 100

GFSFLT1_prec_cloud_033.txt.gz
Cloud_Cover
0 0 0 0 0 0 0 0 0 0 0 0 0 0 0 0 0 0 0 0 0 0 0 0 0 0 0 0 0 0 0 0 0
5 5 0 0 0 0 2 4 0 0 0 0 0 0 0 0 0 0 0 0 0 0 0 0 0 0 0 0 0 0 0 0 0
3 5 0 0 1 4 5 4 4 0 0 0 0 0 0 0 0 0 0 0 0 0 0 0 0 0 0 0 0 0 0 0 0
5 5 3 8 5 5 5 86 69 3 0 0 0 0 0 0 0 0 0 0 0 0 0 0 0 0 0 0 0 0 0 0 0
100 45 5 5 5 5 5 2 1 0 4 0 2 5 5 4 0 0 0 0 0 0 0 0 0 0 0 0 0 0 0 0 0
5 5 3 0 3 5 5 5 0 0 3 39 4 43 6 0 0 0 0 0 0 0 0 0 0 0 0 0 0 0 0 0 0
0 0 5 5 5 5 5 56 5 3 4 5 5 0 1 2 0 0 0 0 0 0 0 0 0 0 0 0 0 0 0 0 0
0 0 0 2 5 4 0 3 4 68 5 2 5 0 0 0 0 0 0 0 0 0 0 0 0 0 0 0 0 0 0 0 0
0 0 0 0 0 0 5 5 2 0 0 0 3 0 1 10 0 0 0 0 0 0 0 0 0 0 0 0 0 0 0 0 0
0 0 0 0 0 0 0 0 3 5 1 2 23 20 5 47 100 81 13 0 0 0 0 0 0 0 0 0 0 0 0 0 0
0 0 0 0 0 0 0 0 0 0 0 0 3 93 30 33 100 94 8 24 28 2 0 0 0 0 0 0 0 0 0 0 0
0 0 0 0 0 0 0 0 0 0 0 0 0 1 1 18 70 59 67 47 48 5 5 32 51 4 0 0 5 0 0 0 0
0 0 0 0 0 0 0 0 0 0 0 0 0 0 0 0 6 6 5 67 66 97 49 100 100 37 27 6 9 16 78 94 80
0 0 3 5 2 2 0 0 0 0 0 0 0 0 0 0 0 3 12 84 90 100 93 96 66 100 52 24 87 44 99 38 67
0 0 0 1 5 2 5 5 3 0 0 0 0 0 0 0 0 0 5 26 25 100 97 97 47 29 28 64 95 73 83 91 97
0 0 0 2 0 0 0 5 5 5 1 0 0 0 0 0 0 0 0 5 79 87 100 55 40 59 99 9 85 100 100 100 88
0 96 2 0 5 5 5 2 5 5 5 2 0 0 0 0 5 5 5 7 43 100 100 100 90 32 25 85 100 100 100 100 100
3 0 0 0 3 5 0 2 4 4 7 5 0 0 0 5 22 15 5 5 50 100 99 33 27 100 88 100 100 100 100 100 100
4 5 0 0 3 5 0 0 0 0 0 0 0 0 0 1 2 6 0 6 67 96 90 98 100 100 100 100 100 100 100 100 100
100 32 16 76 100 100 99 25 24 4 0 0 0 0 91 98 25 0 59 100 100 100 96 100 100 100 100 100 100 100 100 100 100